Simultaneous Nadir Overpasses (SNOs) Predictions

Prediction of SNOs between GOES-15 and TERRA Satellite Orbit:

Table of predicted SNOs for the next 14.0 days since TLE Epoch: 8/16/2014
Index Date Time (GOES-15) GOES-15 Lat,Lon TERRA Lat,Lon Distance(km) Time Diff (sec)
1 08/16/2014 07:49:25 -0.16,-135.46 -0.98,-139.29 436.30 80
2 08/17/2014 19:13:11 0.13,-135.45 -0.79,-131.16 488.71 80
3 08/18/2014 07:37:15 -0.16,-135.43 -0.35,-136.34 103.27 80
4 08/20/2014 07:22:25 -0.15,-135.41 0.29,-133.39 229.29 80
5 08/20/2014 19:46:20 0.18,-135.41 0.86,-138.54 355.94 80
6 08/22/2014 19:34:10 0.18,-135.38 0.21,-135.59 23.87 80
7 08/24/2014 19:19:19 0.17,-135.35 -0.38,-132.63 307.85 80
8 08/25/2014 07:43:22 -0.20,-135.32 -0.76,-137.82 284.63 80
9 08/27/2014 07:28:32
